Forside
METAR-TAF:

METAR-TAF

Lufthavne :

Lawrence J. Timmerman Airport

Milwaukee, Wisconsin, USA

Breddekreds: 43-07N, længdekreds: 088-02W, højde: 227 m

Aktuelle vejr

Denne rapport blev lavet for 23 minutter siden, kl. 11:55 UTC
Vind 8 kt fra sydøst
Temperatur 3°C
Fugtighed 75%
Tryk 1024 hPa
Sigt: 16.1 km
Overskyet i en højde af 2900 ft

METAR: KMWC 241155Z AUTO 14008KT 10SM OVC029 03/M01 A3024 RMK AO2

Tid: 06:18 (12:18 UTC)


TAF: fraværende

Vejrobservationer og prognoser fra mere end 4000 lufthavne (METAR og TAF).

De gule og røde prikker repræsenterer de meteorologiske stationer.

Flyt musen over at se navnet på stationen.

Så klik over at se vejr observationer og prognoser.

At skifte det kort: Klik på de grønne knapper med et sort kors for at zoome ind; på den grønne knap med en bindestreg for at zoome ud; eller på de grønne pile for tilstødende kort.


METAR-TAF: